C/2019 N1 ( ATLAS )

Japanese version
Home page
Updated on January 25, 2020

---------------------------------------------------------------------

* Profile

Discovery Date July 5, 2019
Magnitude 18.6 mag
Discoverer Asteroid Terrestrial-Impact Last Alert System (ATLAS) search program

* Pictures

* Orbital Elements

Epoch 2020 Dec. 17.0 TT = JDT 2459200.5
T 2020 Dec. 1.79015 TT                                  Williams
q   1.7045350            (2000.0)            P               Q
z  +0.0000284      Peri.  193.44684     -0.93823231     +0.25612754
 +/-0.0000041      Node    13.57283     -0.14505053     +0.31925999
e   0.9999515      Incl.   82.42744     -0.31413450     -0.91239889
From 392 observations 2019 June 10-2020 Jan. 4, mean residual 0".5.

* Finding Charts

* Magnitudes Graph

        m1 = 6.5 + 5 log d + 10.0 log r

---------------------------------------------------------------------

The orbital elements are published on M.P.E.C. 2020-A105.
The charts are made with StellaNavigator Ver.10 (AstroArts).
The magnitudes graphs are made with Comet for Windows.

---------------------------------------------------------------------

Copyright(C) Seiichi Yoshida (comet@aerith.net). All rights reserved.